Regional Weather Roundup
Issued by NWS

Home | Current Version | Previous Version | Text Only | Print | Product List | Glossary On
Versions: 1 2 3 4 5 6 7 8 9 10 11 12 13 14 15 16 17 18 19 20 21 22 23 24 25 26 27 28 29 30 31 32 33 34 35 36 37 38 39 40 41 42 43 44 45 46 47 48 49 50
000
ASUS45 KABQ 020610
RWRNM
WEATHER ROUNDUP FOR NEW MEXICO
NATIONAL WEATHER SERVICE ALBUQUERQUE NM
1200 AM MDT THU OCT 02 2014

NOTE: "FAIR" MEANS FEW OR NO CLOUDS BELOW 12,000 FEET AGL WITH NO
       SIGNIFICANT WEATHER OR OBSTRUCTIONS TO VISION.

      THIS PRODUCT IS RELEASED AS TWO VERSIONS.  ONE VERSION NEAR
      THE TOP OF THE HOUR CONTAINING PRELIMINARY DATA FROM ALBUQUERQUE
      AND OTHER STATIONS.  A FINAL VERSION WITH ADDITIONAL DATA IS
      ISSUED ABOUT 10 MINUTES AFTER THE HOUR.

NMZ501-503-504-510>518-020700-
NORTHWEST PLATEAU/NORTHCENTRAL MOUNTAINS

CITY           SKY/WX    TMP DP  RH WIND       PRES   REMARKS
FARMINGTON     CLEAR     52  33  48 NW14      30.08R
6HR MIN TEMP:  52; 6HR MAX TEMP:  65;

LOS ALAMOS     MOCLDY    48  37  65 E8        30.09R
SANTA FE       PTCLDY    52  34  50 N9        30.04R
6HR MIN TEMP:  51; 6HR MAX TEMP:  70;

TAOS           CLOUDY    46  34  61 S6        30.09S
ANGEL FIRE     FAIR      38  33  80 SW8       30.10F WCI  33

$$
NMZ402-403-502-505>509-020700-
WESTCENTRAL MOUNTAINS/SOUTHWEST MOUNTAINS

CITY           SKY/WX    TMP DP  RH WIND       PRES   REMARKS
GALLUP         MOCLDY    52  37  56 NE10      30.12R
6HR MIN TEMP:  46; 6HR MAX TEMP:  66;

GRANTS         CLEAR     45  34  65 N7        30.10R
SILVER CITY    CLEAR     54  39  58 N7        30.05S

$$
NMZ407-409-411-412-020700-
SOUTHERN DESERTS

CITY           SKY/WX    TMP DP  RH WIND       PRES   REMARKS
LORDSBURG      FAIR      59  36  41 MISG      29.99S
DEMING         CLEAR     58  40  51 W8        29.98R
6HR MIN TEMP:  58; 6HR MAX TEMP:  79;

LAS CRUCES     CLEAR     61  36  38 W7        29.98S
HOLLOMAN AFB   CLEAR     69  33  26 W10       29.92S
ALAMOGORDO     CLEAR     64  36  34 E5        29.95S
T OR C         CLEAR     62  36  37 E5        29.97S
6HR MIN TEMP:  61; 6HR MAX TEMP:  80;


$$
NMZ519>523-020700-
CENTRAL VALLEYS/CENTRAL HIGHLANDS

CITY           SKY/WX    TMP DP  RH WIND       PRES   REMARKS
ALBUQUERQUE    PTCLDY    63  36  36 N12       30.01R
6HR MIN TEMP:  63; 6HR MAX TEMP:  76;

DOUBLE EAGLE   PTCLDY    54  36  49 NW9       30.03R
MORIARTY ARPT  FAIR      57  33  39 NW8       30.03S
6HR MIN TEMP:  54; 6HR MAX TEMP:  69;

CLINES CORNERS LGT RAIN  54  37  52 NW13      30.04S
6HR MIN TEMP:  54; 6HR MAX TEMP:  66; 6HR PCP: TRACE;

BELEN          NOT AVBL
SOCORRO        FAIR      69  29  23 NW16G23   29.95S
6HR MIN TEMP:  65; 6HR MAX TEMP:  78;


$$
NMZ524>526-539-540-020700-
SOUTHCENTRAL MOUNTAINS

CITY           SKY/WX    TMP DP  RH WIND       PRES   REMARKS
RUIDOSO        NOT AVBL

$$
NMZ527>531-020700-
NORTHEAST HIGHLANDS/NORTHEAST PLAINS

CITY           SKY/WX    TMP DP  RH WIND       PRES   REMARKS
LAS VEGAS      MOCLDY    53  31  42 N9        30.03R
6HR MIN TEMP:  50; 6HR MAX TEMP:  66;

RATON          PTCLDY    52  32  46 W10       29.98R
6HR MIN TEMP:  46; 6HR MAX TEMP:  67; 6HR PCP: TRACE;

CLAYTON        PTCLDY    61  36  39 NW14      29.89R
6HR MIN TEMP:  57; 6HR MAX TEMP:  72;


$$
NMZ532>537-020700-
EASTCENTRAL PLAINS

CITY           SKY/WX    TMP DP  RH WIND       PRES   REMARKS
TUCUMCARI      CLEAR     63  43  48 W9        29.84R
6HR MIN TEMP:  60; 6HR MAX TEMP:  80;

CANNON AFB     CLEAR     62  42  47 W3        29.86S
6HR MIN TEMP:  60; 6HR MAX TEMP:  78;

CLOVIS AIRPORT   N/A     55  43  62 W6        29.88F

$$
NMZ028-029-538-020700-
SOUTHEAST PLAINS

CITY           SKY/WX    TMP DP  RH WIND       PRES   REMARKS
ROSWELL        CLEAR     58  44  60 SW10      29.84S
6HR MIN TEMP:  56; 6HR MAX TEMP:  82;

CARLSBAD       CLEAR     60  48  64 NW7       29.84S
6HR MIN TEMP:  60; 6HR MAX TEMP:  82;

HOBBS          CLEAR     63  46  55 W9        29.87S


$$


USA.gov is the U.S. government's official web portal to all federal, state and local government web resources and services.